RYR653C LFML-LIRN

Flight info

Callsign RYR653C
Flight time N/A
Altitude 35000
Route NASIK P856 RAPED DCT RAPUR/N0437F390 DCT RATAP DCT BTA DCT DOKAR DCT SUNEV DCT ELVIN DCT RIFFI M729 PNZ
Aircraft B738/M-SDE3FGILRWY/SB1

Departure

Time 2026-04-28 14:42
Airport Marseille Provence Airport (LFML)

Arrival

Time N/A
Airport Naples International Airport (LIRN)
Time Latitude Longitude Altitude Speed Heading
2026-04-28 14:03 43.44213 5.21816 31 ft 0 kts 89°
2026-04-28 14:36 43.44213 5.21817 31 ft 1 kts 89°
2026-04-28 14:37 43.44207 5.21835 31 ft 2 kts 120°
2026-04-28 14:37 43.44193 5.21844 31 ft 2 kts 176°
2026-04-28 14:37 43.44172 5.21832 32 ft 6 kts 201°
2026-04-28 14:37 43.44118 5.21807 32 ft 10 kts 205°
2026-04-28 14:38 43.44053 5.21732 32 ft 14 kts 223°
2026-04-28 14:38 43.43977 5.21633 33 ft 15 kts 225°
2026-04-28 14:38 43.43922 5.21517 32 ft 16 kts 269°
2026-04-28 14:38 43.43991 5.21386 27 ft 19 kts 314°
2026-04-28 14:39 43.44095 5.21237 27 ft 24 kts 314°
2026-04-28 14:39 43.44214 5.21068 22 ft 23 kts 311°
2026-04-28 14:39 43.44307 5.20888 18 ft 23 kts 298°
2026-04-28 14:39 43.44406 5.20726 17 ft 22 kts 314°
2026-04-28 14:40 43.44502 5.20586 17 ft 19 kts 313°
2026-04-28 14:40 43.44563 5.20498 18 ft 19 kts 317°
2026-04-28 14:40 43.44662 5.20360 17 ft 7 kts 314°
2026-04-28 14:40 43.44673 5.20295 16 ft 7 kts 258°
2026-04-28 14:41 43.44638 5.20244 17 ft 7 kts 222°
2026-04-28 14:41 43.44600 5.20202 17 ft 7 kts 199°
2026-04-28 14:41 43.44560 5.20235 20 ft 8 kts 134°
2026-04-28 14:41 43.44443 5.20402 18 ft 50 kts 134°
2026-04-28 14:42 43.44032 5.20989 22 ft 119 kts 134°
2026-04-28 14:42 43.43336 5.21990 185 ft 159 kts 135°
2026-04-28 14:42 43.42552 5.23143 752 ft 176 kts 135°
2026-04-28 14:42 43.41923 5.24696 1442 ft 187 kts 103°
2026-04-28 14:43 43.41990 5.26413 2651 ft 173 kts 80°
2026-04-28 14:43 43.42231 5.28031 3568 ft 174 kts 81°
2026-04-28 14:43 43.42478 5.29776 4046 ft 202 kts 80°
2026-04-28 14:43 43.42760 5.31783 4298 ft 230 kts 80°
2026-04-28 14:44 43.43086 5.34090 4521 ft 260 kts 82°
2026-04-28 14:44 43.43221 5.36621 5191 ft 267 kts 92°
2026-04-28 14:44 43.43116 5.39160 5987 ft 270 kts 95°
2026-04-28 14:44 43.42958 5.41759 6845 ft 274 kts 96°
2026-04-28 14:45 43.42796 5.44392 7647 ft 278 kts 95°
2026-04-28 14:45 43.42641 5.47077 8395 ft 283 kts 95°
2026-04-28 14:45 43.42492 5.49761 9174 ft 286 kts 95°
2026-04-28 14:45 43.42346 5.52524 9927 ft 290 kts 95°
2026-04-28 14:46 43.42202 5.55350 10456 ft 304 kts 95°
2026-04-28 14:46 43.42050 5.58349 10645 ft 327 kts 95°
2026-04-28 14:46 43.41890 5.61548 11168 ft 338 kts 95°
2026-04-28 14:46 43.41729 5.64780 11873 ft 342 kts 95°
2026-04-28 14:47 43.41561 5.68079 12611 ft 347 kts 95°
2026-04-28 14:47 43.41390 5.71417 13324 ft 352 kts 95°
2026-04-28 14:47 43.41282 5.74804 14015 ft 358 kts 91°
2026-04-28 14:47 43.41358 5.78273 14736 ft 363 kts 88°
2026-04-28 14:48 43.41506 5.81755 15430 ft 368 kts 87°
2026-04-28 14:48 43.41666 5.85296 16138 ft 373 kts 87°
2026-04-28 14:48 43.41818 5.88841 16803 ft 378 kts 88°
2026-04-28 14:48 43.41962 5.92492 17480 ft 383 kts 88°
2026-04-28 14:49 43.42097 5.96196 18112 ft 388 kts 88°
2026-04-28 14:49 43.42225 5.99935 18763 ft 392 kts 88°
2026-04-28 14:49 43.42352 6.03698 19410 ft 396 kts 88°
2026-04-28 14:49 43.42476 6.07519 20015 ft 401 kts 88°
2026-04-28 14:50 43.42599 6.11331 20637 ft 404 kts 88°
2026-04-28 14:50 43.42721 6.15184 21240 ft 407 kts 88°
2026-04-28 14:50 43.42846 6.19113 21774 ft 412 kts 88°
2026-04-28 14:50 43.42971 6.23088 22334 ft 415 kts 89°
2026-04-28 14:51 43.43078 6.27069 22875 ft 418 kts 91°
2026-04-28 14:51 43.42923 6.31038 23397 ft 421 kts 97°
2026-04-28 14:51 43.42558 6.35063 23881 ft 424 kts 99°